time_stamp(utc),avg(mph),gust(mph),direction(deg),12m_air_temp(f),sonic_u(cm/s),sonic_v(cm/s),sonic_w(cm/s),pressure,2m_air_temp(f),pyranometer(W/m^2)
"2019-07-12 00:00:00+00",15.7,18.7,,76.8,780,-1830,770,1008.81,76.8,0
"2019-07-12 00:55:00+00",13.3,15.3,,75.5,-464,374,32,1009.56,75.9,0
"2019-07-12 01:00:00+00",14.8,16.8,,74.6,-462,485,48,1009.37,75.2,0
"2019-07-12 01:05:00+00",15.8,18.8,,73.9,-338,608,14,1009.34,74.5,0
"2019-07-12 01:10:00+00",14.5,16.5,,73.1,-307,564,49,1008.97,74,0
"2019-07-12 01:15:00+00",6.1,8.1,,72.8,-137,221,34,1009.28,73.4,0
"2019-07-12 01:20:00+00",19.0,21.0,,72.7,-682,2919,102,1009.39,73.1,0
"2019-07-12 01:25:00+00",11.0,13.0,,72,-483,119,21,1009.89,72.9,0
"2019-07-12 01:30:00+00",6.6,8.6,,71.6,-276,83,19,1009.49,72.2,0
"2019-07-12 01:35:00+00",12.7,13.7,,71.5,-429,364,36,1009.04,71.8,0
"2019-07-12 01:40:00+00",9.2,11.2,,71.4,-353,223,20,1009.37,71.9,0
"2019-07-12 01:45:00+00",9.1,10.1,,71.5,-347,182,20,1009.7,71.8,0
"2019-07-12 01:50:00+00",19.3,23.3,,71.7,-1677,1887,-774,1009.72,72.3,0
"2019-07-12 01:55:00+00",19.2,21.2,,71.3,-1596,1514,-701,1009.72,72.1,0
"2019-07-12 02:00:00+00",14.6,16.6,,71.4,-542,417,21,1009.27,71.5,0
"2019-07-12 02:05:00+00",4.2,7.2,,71.7,-124,96,11,1008.92,71.5,0
"2019-07-12 02:10:00+00",5.7,7.7,,71.7,-221,86,41,1008.7,71.6,0
"2019-07-12 02:15:00+00",3.8,4.8,,72,-152,57,15,1008.6,71.8,0
"2019-07-12 02:20:00+00",4.1,6.1,,72.2,-108,79,53,1008.62,71.9,0
"2019-07-12 02:25:00+00",14.1,17.1,,72.3,-542,358,40,1008.51,72,0
"2019-07-12 02:30:00+00",13.2,16.2,,72.4,-326,473,25,1008.2,72.1,0
"2019-07-12 02:35:00+00",15.8,17.8,,72.5,-353,592,36,1008.07,72,0
"2019-07-12 02:40:00+00",22.6,25.6,,72.8,-1207,913,31,1007.87,72.3,0
"2019-07-12 02:45:00+00",28.8,31.8,,72,-2003,2004,-850,1008.06,72.5,0
"2019-07-12 02:50:00+00",23.3,25.3,,71.9,-1933,2465,-975,1008.06,72.1,0
"2019-07-12 02:55:00+00",19.1,22.1,,71.6,-649,792,-52,1007.86,71.9,0
"2019-07-12 03:00:00+00",9.9,12.9,,71.4,-267,346,38,1007.64,71.3,0
"2019-07-12 03:05:00+00",5.3,6.3,,71.4,-66,215,21,1007.52,71.3,0
"2019-07-12 03:10:00+00",9.2,11.2,,71.3,-358,177,7,1007.24,70.9,0
"2019-07-12 03:15:00+00",10.3,11.3,,71.3,-397,246,26,1007,70.8,0
"2019-07-12 03:20:00+00",5.9,7.9,,71.4,-191,167,24,1006.83,70.8,0
"2019-07-12 03:25:00+00",6.4,7.4,,71.3,-159,223,18,1006.62,70.4,0
"2019-07-12 03:30:00+00",6.6,6.6,,71.1,-56,268,-21,1006.39,70.4,0
"2019-07-12 03:35:00+00",8.5,8.5,,70.8,78,354,3,1006.28,70.3,0
"2019-07-12 03:40:00+00",9.0,10.0,,70.4,151,348,-4,1005.95,70.1,0
"2019-07-12 03:45:00+00",8.2,9.2,,70.7,83,336,1,1005.75,70.1,0
"2019-07-12 03:50:00+00",5.4,6.4,,71,-28,227,9,1005.74,70.3,0
"2019-07-12 03:55:00+00",4.4,5.4,,71.4,-95,169,19,1005.85,70.6,0
"2019-07-12 04:00:00+00",3.4,3.4,,71.6,-108,105,14,1006.03,70.9,0
"2019-07-12 04:05:00+00",3.6,3.6,,71.8,-149,58,12,1006.26,71.1,0
"2019-07-12 04:10:00+00",4.1,5.1,,72.1,-179,-10,9,1006.45,71.3,0
"2019-07-12 04:15:00+00",2.9,2.9,,72.2,-121,-45,3,1006.46,71.5,0
"2019-07-12 04:20:00+00",4.1,4.1,,72.1,-163,-87,7,1006.55,71.6,0
"2019-07-12 04:25:00+00",5.3,5.3,,72,-212,-52,9,1006.56,71.6,0
"2019-07-12 04:30:00+00",5.6,6.6,,72.1,-187,-144,10,1006.59,71.6,0
"2019-07-12 04:35:00+00",8.8,9.8,,72.6,-284,-236,11,1006.64,71.7,0
"2019-07-12 04:40:00+00",9.7,10.7,,73.1,-345,-236,23,1006.83,72.2,0
"2019-07-12 04:45:00+00",9.1,10.1,,73,-299,-242,7,1006.97,72.4,0
"2019-07-12 04:50:00+00",7.2,9.2,,73,-155,-270,6,1006.82,72.2,0
"2019-07-12 04:55:00+00",7.0,8.0,,72.9,-188,-247,-1,1006.83,72.1,0
"2019-07-12 05:00:00+00",9.4,10.4,,73.1,-288,-304,2,1006.77,72.2,0
"2019-07-12 05:05:00+00",9.5,11.5,,73.1,-304,-285,5,1006.83,72.3,0
"2019-07-12 05:10:00+00",11.2,12.2,,73.2,-473,-225,15,1007.02,72.4,0
"2019-07-12 05:15:00+00",12.7,15.7,,73.4,-532,-162,16,1007.04,72.5,0
"2019-07-12 05:20:00+00",14.8,18.8,,73.3,-622,-176,42,1007.31,72.4,0
"2019-07-12 05:25:00+00",17.1,21.1,,73.3,-708,-184,48,1007.41,72.3,0
"2019-07-12 05:30:00+00",17.4,20.4,,73,-747,-95,36,1007.46,72.3,0
"2019-07-12 05:35:00+00",16.4,18.4,,72.9,-704,-187,19,1007.31,72.2,0
"2019-07-12 05:40:00+00",15.5,17.5,,72.9,-648,-138,31,1007.23,72.2,0
"2019-07-12 05:45:00+00",12.8,14.8,,73.1,-555,-47,41,1007.2,72.4,0
"2019-07-12 05:50:00+00",13.1,14.1,,73.1,-579,-14,31,1007.11,72.3,0
"2019-07-12 05:55:00+00",11.1,13.1,,73.1,-479,-19,48,1006.96,72.3,0
"2019-07-12 06:00:00+00",14.6,16.6,,73,-647,-22,49,1006.91,72.2,0
"2019-07-12 06:05:00+00",17.3,19.3,,73.1,-770,55,36,1007.09,72.3,0
"2019-07-12 06:10:00+00",17.7,19.7,,73.2,-789,109,50,1007.17,72.2,0
"2019-07-12 06:15:00+00",12.9,14.9,,73.2,-584,67,44,1007.12,72.3,0
"2019-07-12 06:20:00+00",11.9,13.9,,73.2,-530,0,32,1006.88,72.4,0
"2019-07-12 06:25:00+00",12.1,13.1,,73.2,-537,39,27,1006.75,72.4,0
"2019-07-12 06:30:00+00",11.1,15.1,,73.3,-487,71,22,1006.61,72.4,0
"2019-07-12 06:35:00+00",13.9,16.9,,73.2,-618,7,42,1006.48,72.2,0
"2019-07-12 06:40:00+00",14.5,15.5,,73.2,-650,67,44,1006.5,72.2,0
"2019-07-12 06:45:00+00",14.7,16.7,,73.2,-661,23,38,1006.47,72.3,0
"2019-07-12 06:50:00+00",14.0,17.0,,73.2,-625,40,47,1006.4,72.3,0
"2019-07-12 06:55:00+00",14.1,15.1,,73.2,-627,90,39,1006.31,72.4,0
"2019-07-12 07:00:00+00",16.6,19.6,,73.2,-737,84,43,1006.24,72.2,0
"2019-07-12 07:05:00+00",16.2,19.2,,73.1,-715,15,36,1006.21,72.2,0
"2019-07-12 07:10:00+00",17.3,18.3,,73,-768,8,26,1006.31,72.2,0
"2019-07-12 07:15:00+00",12.3,13.3,,73,-538,11,59,1006.24,72.3,0
"2019-07-12 07:20:00+00",13.2,16.2,,73,-582,-54,16,1006.21,72.2,0
"2019-07-12 07:25:00+00",15.5,17.5,,72.9,-681,-13,26,1006.12,72.2,0
"2019-07-12 07:30:00+00",17.0,19.0,,73,-739,-66,24,1006.18,72.2,0
"2019-07-12 07:35:00+00",17.5,21.5,,73,-764,-41,25,1006.22,72.3,0
"2019-07-12 07:40:00+00",14.6,17.6,,73.1,-644,11,32,1006.26,72.4,0
"2019-07-12 07:45:00+00",16.4,18.4,,73.2,-733,0,25,1006.28,72.3,0
"2019-07-12 07:50:00+00",14.7,17.7,,73.3,-639,124,80,1006.16,72.4,0
"2019-07-12 07:55:00+00",15.8,18.8,,73.4,-706,42,50,1006.23,72.4,0
"2019-07-12 08:00:00+00",15.9,17.9,,73.4,-703,51,34,1006.31,72.4,0
"2019-07-12 08:05:00+00",13.3,15.3,,73.3,-588,32,35,1006.29,72.2,0
"2019-07-12 08:10:00+00",13.5,16.5,,73.3,-598,25,39,1006.18,72.2,0
"2019-07-12 08:15:00+00",10.4,13.4,,73.2,-453,-35,36,1006.28,72.2,0
"2019-07-12 08:20:00+00",10.8,11.8,,73.2,-476,6,25,1006.23,72.2,0
"2019-07-12 08:25:00+00",13.3,15.3,,73.2,-580,-17,29,1006.19,72.1,0
"2019-07-12 08:30:00+00",14.2,15.2,,73.3,-616,-34,24,1006.26,72.1,0
"2019-07-12 08:35:00+00",10.7,12.7,,73.1,-473,7,33,1006.36,72.2,0
"2019-07-12 08:40:00+00",13.0,14.0,,73.1,-583,20,29,1006.44,72.1,0
"2019-07-12 08:45:00+00",13.0,15.0,,73.2,-576,56,44,1006.57,72.2,0
"2019-07-12 08:50:00+00",14.4,15.4,,73.3,-641,60,36,1006.53,72.3,0
"2019-07-12 08:55:00+00",12.8,13.8,,73.2,-571,40,34,1006.62,72.3,0
"2019-07-12 09:00:00+00",15.2,17.2,,73.1,-680,21,44,1006.6,72.2,0
"2019-07-12 09:05:00+00",15.2,17.2,,73.2,-677,18,33,1006.67,72.3,0
"2019-07-12 09:10:00+00",12.0,15.0,,73.3,-525,-24,8,1006.69,72.3,0
"2019-07-12 09:15:00+00",11.9,14.9,,73.2,-508,-87,19,1006.66,72.2,0
"2019-07-12 09:20:00+00",12.9,14.9,,73.1,-559,-58,23,1006.63,72.1,0
"2019-07-12 09:25:00+00",11.8,13.8,,73,-494,-134,29,1006.65,72.1,0
"2019-07-12 09:30:00+00",14.0,16.0,,73,-596,-103,34,1006.73,72.1,0
"2019-07-12 09:35:00+00",12.0,15.0,,73,-508,-101,25,1006.71,72.1,0
"2019-07-12 09:40:00+00",11.8,13.8,,72.9,-494,-106,24,1006.68,72.1,0
"2019-07-12 09:45:00+00",12.9,14.9,,73,-554,-72,30,1006.77,72.1,0
"2019-07-12 09:50:00+00",13.4,15.4,,73.1,-579,-61,31,1006.82,72.1,0
"2019-07-12 09:55:00+00",14.1,16.1,,73.1,-583,-122,6,1006.83,72.2,0
"2019-07-12 10:00:00+00",14.7,16.7,,73.1,-633,-89,24,1006.88,72.2,0
"2019-07-12 10:05:00+00",12.0,14.0,,73.1,-498,-115,34,1006.88,72.2,0
"2019-07-12 10:10:00+00",10.7,12.7,,73,-450,-134,21,1006.83,72.2,0
"2019-07-12 10:15:00+00",10.1,12.1,,73,-429,-153,19,1006.78,72.2,0
"2019-07-12 10:20:00+00",9.2,10.2,,73,-401,-158,23,1006.84,72.2,0
"2019-07-12 10:25:00+00",12.0,15.0,,73.1,-494,-143,16,1006.75,72.3,9.6
"2019-07-12 10:30:00+00",12.1,13.1,,73.1,-504,-112,10,1006.88,72.4,6.8
"2019-07-12 10:35:00+00",12.4,14.4,,73.1,-511,-143,23,1006.93,72.4,1.9
"2019-07-12 10:40:00+00",11.2,13.2,,73.1,-476,-82,27,1006.96,72.4,16.4
"2019-07-12 10:45:00+00",12.2,14.2,,73.2,-515,-107,28,1006.99,72.6,20.7
"2019-07-12 10:50:00+00",11.2,12.2,,73.2,-463,-100,15,1007.02,72.7,19.7
"2019-07-12 10:55:00+00",10.6,11.6,,73.2,-440,-105,21,1006.96,72.8,25.2
"2019-07-12 11:00:00+00",10.1,11.1,,73.1,-418,-101,20,1007,72.9,45.3
"2019-07-12 11:05:00+00",12.0,13.0,,73.4,-529,-9,16,1007.04,73.1,84.2
"2019-07-12 11:10:00+00",13.3,14.3,,73.5,-575,-62,22,1007.08,73.2,77.3
"2019-07-12 11:15:00+00",10.5,12.5,,73.6,-447,-57,44,1007.18,73.4,69.4
"2019-07-12 11:20:00+00",13.3,15.3,,73.6,-565,-78,22,1007.16,73.5,97
"2019-07-12 11:25:00+00",11.1,13.1,,73.5,-470,-64,47,1007.18,73.5,73.9
"2019-07-12 11:30:00+00",11.9,12.9,,73.5,-505,-74,23,1007.18,73.7,107.4
"2019-07-12 11:35:00+00",12.6,14.6,,73.5,-550,-26,22,1007.23,73.8,95.7
"2019-07-12 11:40:00+00",14.9,16.9,,73.6,-643,-74,34,1007.27,73.8,42.2
"2019-07-12 11:45:00+00",15.7,16.7,,73.5,-695,124,33,1007.47,73.7,56.4
"2019-07-12 11:50:00+00",13.4,15.4,,73.7,-595,20,48,1007.48,73.6,92.5
"2019-07-12 11:55:00+00",11.9,14.9,,73.8,-550,59,43,1007.51,73.7,67.1
"2019-07-12 12:00:00+00",12.7,15.7,,73.9,-574,5,38,1007.58,73.8,75
"2019-07-12 12:05:00+00",16.2,17.2,,74,-718,57,34,1007.64,73.8,66.9
"2019-07-12 12:10:00+00",13.4,16.4,,73.9,-591,134,53,1007.73,73.8,71.9
"2019-07-12 12:15:00+00",16.2,17.2,,73.9,-717,91,42,1007.7,73.9,65.6
"2019-07-12 12:20:00+00",13.2,15.2,,74,-578,134,67,1007.74,73.9,77
"2019-07-12 12:25:00+00",12.8,14.8,,74.1,-541,189,48,1007.77,74,71.1
"2019-07-12 12:30:00+00",14.5,15.5,,74.1,-614,237,35,1007.74,74,85.5
"2019-07-12 12:35:00+00",14.3,16.3,,74.2,-587,238,26,1007.81,74.1,70.4
"2019-07-12 12:40:00+00",16.5,18.5,,74.2,-703,262,40,1007.88,74.1,132.4
"2019-07-12 12:45:00+00",14.5,16.5,,74.3,-601,260,37,1007.81,74.3,189.6
"2019-07-12 12:50:00+00",14.4,16.4,,74.3,-634,153,44,1007.73,74.5,87.4
"2019-07-12 12:55:00+00",15.2,17.2,,74.3,-647,242,55,1007.79,74.7,136
"2019-07-12 13:00:00+00",13.5,15.5,,74.5,-579,190,48,1007.79,74.8,305.5
"2019-07-12 13:05:00+00",12.6,14.6,,74.9,-560,137,61,1007.81,75.4,191.8
"2019-07-12 13:10:00+00",15.8,17.8,,74.9,-697,170,50,1007.75,75.5,138.1
"2019-07-12 13:15:00+00",15.5,16.5,,74.8,-632,306,35,1007.77,75.5,251.5
"2019-07-12 13:20:00+00",14.8,15.8,,74.9,-595,298,29,1007.78,75.6,132.5
"2019-07-12 13:25:00+00",14.2,16.2,,75.1,-599,229,28,1007.78,75.7,164.3
"2019-07-12 13:30:00+00",12.0,13.0,,75.2,-511,200,49,1007.72,75.9,132.6
"2019-07-12 13:35:00+00",13.9,14.9,,75.1,-605,178,46,1007.81,75.8,238.4
"2019-07-12 13:40:00+00",14.5,17.5,,75.5,-631,185,51,1007.74,76.2,378.9
"2019-07-12 13:45:00+00",14.2,16.2,,75.3,-631,113,43,1007.74,76.5,281.6
"2019-07-12 13:50:00+00",12.6,14.6,,75.7,-523,223,46,1007.74,77,209.5
"2019-07-12 13:55:00+00",13.8,15.8,,75.4,-607,132,43,1007.73,76.9,155.7
"2019-07-12 14:00:00+00",13.4,15.4,,75.6,-544,257,49,1007.71,76.9,155.2
"2019-07-12 14:05:00+00",11.9,13.9,,75.6,-499,203,46,1007.77,77.1,377
"2019-07-12 14:10:00+00",13.1,15.1,,75.8,-558,208,41,1007.81,77.5,337.4
"2019-07-12 14:15:00+00",14.5,15.5,,76,-637,151,45,1007.87,77.7,361.2
"2019-07-12 14:20:00+00",14.9,17.9,,76.4,-644,194,74,1007.89,78,422.4
"2019-07-12 14:25:00+00",13.5,15.5,,76.6,-538,271,88,1008.06,78.3,443.6
"2019-07-12 14:30:00+00",15.3,16.3,,76.6,-672,186,44,1008.07,78.6,454.3
"2019-07-12 14:35:00+00",12.9,14.9,,77.1,-529,255,41,1008.04,78.9,344.6
"2019-07-12 14:40:00+00",13.3,15.3,,77.3,-573,161,24,1008.01,79.2,448.9
"2019-07-12 14:45:00+00",12.1,13.1,,77.4,-537,106,45,1007.79,79.5,441.7
"2019-07-12 14:50:00+00",12.1,13.1,,77.5,-528,168,32,1007.8,79.8,473.2
"2019-07-12 14:55:00+00",13.6,14.6,,77.8,-586,180,43,1007.85,80.1,467.6
"2019-07-12 15:00:00+00",13.7,15.7,,77.8,-593,160,33,1007.86,80.3,412.3
"2019-07-12 15:05:00+00",10.7,12.7,,78.2,-448,179,83,1007.92,80.4,481.1
"2019-07-12 15:10:00+00",13.4,15.4,,78.7,-540,261,66,1007.9,80.7,498.6
"2019-07-12 15:15:00+00",13.9,15.9,,79,-536,309,53,1007.92,81,514.8
"2019-07-12 15:20:00+00",15.0,18.0,,79.4,-638,247,36,1007.89,81.4,454.9
"2019-07-12 15:25:00+00",14.3,16.3,,79.4,-601,207,29,1007.83,81.6,548
"2019-07-12 15:30:00+00",15.8,17.8,,79.6,-673,256,55,1007.83,81.9,542.5
"2019-07-12 15:35:00+00",15.2,17.2,,79.7,-598,322,36,1007.85,82.1,212.2
"2019-07-12 15:40:00+00",16.1,18.1,,79.9,-628,354,29,1007.83,82.1,501.6
"2019-07-12 15:45:00+00",13.2,16.2,,80.1,-486,325,81,1007.89,82.2,408.4
"2019-07-12 15:50:00+00",14.4,16.4,,80.1,-577,291,49,1007.8,82.3,364.7
"2019-07-12 15:55:00+00",13.0,15.0,,80.3,-507,292,39,1007.74,82.3,418.1
"2019-07-12 16:00:00+00",14.6,18.6,,80.5,-590,288,53,1007.77,82.5,512.7
"2019-07-12 16:05:00+00",12.4,14.4,,80.5,-490,265,35,1007.8,82.8,538
"2019-07-12 16:10:00+00",16.2,18.2,,80.6,-709,189,45,1007.7,83.2,558
"2019-07-12 16:15:00+00",12.8,13.8,,80.8,-542,201,29,1007.76,83.4,322.6
"2019-07-12 16:20:00+00",13.8,15.8,,81,-551,272,77,1007.8,83.7,492
"2019-07-12 16:25:00+00",13.5,14.5,,81.6,-568,228,58,1007.81,84.1,570.2
"2019-07-12 16:30:00+00",16.7,18.7,,81.6,-710,249,42,1007.69,84.4,574.6
"2019-07-12 16:35:00+00",16.6,18.6,,82,-645,343,36,1007.77,84.4,572
"2019-07-12 16:40:00+00",15.7,17.7,,82.2,-672,255,56,1007.71,84.8,585.9
"2019-07-12 16:45:00+00",13.0,16.0,,82.3,-543,228,65,1007.78,84.8,584.3
"2019-07-12 16:50:00+00",16.5,17.5,,82.2,-704,252,38,1007.7,84.9,541.3
"2019-07-12 16:55:00+00",17.9,20.9,,82.3,-736,329,46,1007.66,84.9,455.2
"2019-07-12 17:00:00+00",15.0,17.0,,82.3,-644,205,43,1007.67,85.1,563.3
"2019-07-12 17:05:00+00",15.4,18.4,,82.6,-642,258,30,1007.62,85.3,543.6
"2019-07-12 17:10:00+00",15.5,17.5,,82.7,-649,241,45,1007.57,85.3,583.2
"2019-07-12 17:15:00+00",13.6,15.6,,83.3,-509,334,83,1007.53,85.6,575.9
"2019-07-12 17:20:00+00",14.1,17.1,,82.9,-600,234,75,1007.53,85.5,531.7
"2019-07-12 17:25:00+00",15.6,17.6,,82.7,-677,194,46,1007.61,85.4,552.4
"2019-07-12 17:30:00+00",15.2,16.2,,83,-586,384,37,1007.56,85.6,558.6
"2019-07-12 17:35:00+00",13.7,15.7,,83.2,-551,282,25,1007.59,85.8,555.5
"2019-07-12 17:40:00+00",13.7,16.7,,83.5,-585,200,57,1007.57,86.1,516.4
"2019-07-12 17:45:00+00",15.7,18.7,,83.5,-695,126,23,1007.55,86.2,261
"2019-07-12 17:50:00+00",16.4,17.4,,83.8,-707,220,78,1007.52,86.3,561.6
"2019-07-12 17:55:00+00",15.4,18.4,,83.8,-651,244,43,1007.53,86.4,556
"2019-07-12 18:00:00+00",16.7,18.7,,84,-708,273,69,1007.52,86.5,510.4
"2019-07-12 18:05:00+00",15.9,17.9,,84.1,-690,232,39,1007.45,86.7,553.2
"2019-07-12 18:10:00+00",14.4,17.4,,84.1,-522,380,26,1007.48,86.9,564.2
"2019-07-12 18:15:00+00",14.6,17.6,,84.4,-615,229,60,1007.41,87,532.7
"2019-07-12 18:20:00+00",16.1,18.1,,84.6,-691,221,51,1007.41,87.1,540.6
"2019-07-12 18:25:00+00",17.0,20.0,,85,-701,311,77,1007.4,87.3,554.2
"2019-07-12 18:30:00+00",14.9,17.9,,84.7,-453,487,43,1007.44,87.3,517.6
"2019-07-12 18:35:00+00",15.2,18.2,,84.8,-629,230,42,1007.4,87.3,522.2
"2019-07-12 18:40:00+00",12.5,14.5,,84.9,-376,401,61,1007.51,87.4,380.9
"2019-07-12 18:45:00+00",15.6,17.6,,84.9,-635,298,26,1007.48,87.2,136.2
"2019-07-12 18:50:00+00",17.7,20.7,,85.1,-710,360,39,1007.37,87.3,519.9
"2019-07-12 18:55:00+00",11.4,14.4,,85.1,-475,220,80,1007.4,87.4,232.4
"2019-07-12 19:00:00+00",18.3,21.3,,85.1,-759,312,29,1007.37,87.4,496.4
"2019-07-12 19:05:00+00",17.0,19.0,,85.1,-729,252,59,1007.36,87.7,470.9
"2019-07-12 19:10:00+00",15.6,17.6,,85.3,-680,193,43,1007.33,87.7,450.9
"2019-07-12 19:15:00+00",15.8,19.8,,85.6,-664,267,44,1007.33,87.7,436.7
"2019-07-12 19:20:00+00",14.6,16.6,,85.5,-625,190,67,1007.3,87.9,443.4
"2019-07-12 19:25:00+00",14.0,16.0,,85.4,-581,234,50,1007.39,87.8,430.2
"2019-07-12 19:30:00+00",17.0,20.0,,85.7,-686,336,62,1007.33,87.9,418.7
"2019-07-12 19:35:00+00",13.7,15.7,,85.5,-591,205,57,1007.38,88,364.8
"2019-07-12 19:40:00+00",18.6,22.6,,85.8,-808,203,57,1007.24,88.1,405
"2019-07-12 19:45:00+00",15.7,16.7,,85.7,-651,261,47,1007.26,88.2,393.9
"2019-07-12 19:50:00+00",19.4,22.4,,85.7,-831,304,56,1007.23,88,378.3
"2019-07-12 19:55:00+00",17.4,21.4,,85.6,-728,315,63,1007.28,87.7,371.5
"2019-07-12 20:00:00+00",17.4,20.4,,85.6,-749,263,51,1007.26,87.3,84.6
"2019-07-12 20:05:00+00",15.2,18.2,,85.6,-678,121,70,1007.22,87.3,357.3
"2019-07-12 20:10:00+00",18.0,20.0,,85.8,-801,164,62,1007.15,87.5,189.5
"2019-07-12 20:15:00+00",17.9,20.9,,85.6,-738,340,55,1007.13,87.5,355.6
"2019-07-12 20:20:00+00",16.3,17.3,,85.8,-720,175,59,1007.16,87.7,335
"2019-07-12 20:25:00+00",19.4,21.4,,85.5,-827,320,70,1007.14,87.7,319.7
"2019-07-12 20:30:00+00",17.2,20.2,,85.7,-695,339,55,1007.19,87.7,242.4
"2019-07-12 20:35:00+00",17.5,19.5,,85.3,-756,273,62,1007.19,87.5,268.9
"2019-07-12 20:40:00+00",15.6,17.6,,85.7,-651,279,56,1007.22,87.5,83.6
"2019-07-12 20:45:00+00",13.4,15.4,,84.8,-572,200,24,1007.35,86.8,53.5
"2019-07-12 20:50:00+00",13.4,15.4,,85.2,-573,225,43,1007.35,87.1,39.1
"2019-07-12 20:55:00+00",17.1,19.1,,85.3,-686,339,53,1007.28,87.3,37.1
"2019-07-12 21:00:00+00",15.8,21.8,,85,-694,163,52,1007.27,86.9,33.8
"2019-07-12 21:05:00+00",18.6,20.6,,85.5,-814,213,47,1007.27,86.9,254.3
"2019-07-12 21:10:00+00",17.2,20.2,,85.5,-759,180,48,1007.27,87.1,250.9
"2019-07-12 21:15:00+00",15.3,17.3,,85.3,-662,242,59,1007.24,87.1,230
"2019-07-12 21:20:00+00",14.6,17.6,,84.7,-610,250,33,1007.3,87.1,40.6
"2019-07-12 21:25:00+00",14.7,16.7,,84.6,-596,292,50,1007.34,86.6,134.8
"2019-07-12 21:30:00+00",15.1,18.1,,84.8,-666,184,47,1007.39,86.7,214.6
"2019-07-12 21:35:00+00",14.0,18.0,,84.6,-616,133,39,1007.48,86.7,200.1
"2019-07-12 21:40:00+00",18.3,20.3,,85,-814,136,56,1007.48,86.5,186.7
"2019-07-12 21:45:00+00",19.4,20.4,,85,-858,112,47,1007.49,86.2,71.6
"2019-07-12 21:50:00+00",17.2,19.2,,84.8,-746,245,54,1007.6,85.7,152.9
"2019-07-12 21:55:00+00",17.8,18.8,,84.6,-762,287,54,1007.63,85.5,192.2
"2019-07-12 22:00:00+00",16.4,17.4,,84.2,-709,237,47,1007.66,85.3,189.9
"2019-07-12 22:05:00+00",16.8,19.8,,84.2,-721,251,52,1007.69,85.3,169.1
"2019-07-12 22:10:00+00",16.8,18.8,,84.7,-741,150,42,1007.73,85.2,156.7
"2019-07-12 22:15:00+00",17.7,19.7,,85,-772,205,48,1007.79,85.4,142.6
"2019-07-12 22:20:00+00",13.7,16.7,,84.2,-595,160,42,1007.92,85,59.9
"2019-07-12 22:25:00+00",16.2,18.2,,84.4,-728,111,41,1007.95,84.9,140.8
"2019-07-12 22:30:00+00",14.7,16.7,,84.4,-647,152,48,1007.9,85.1,124.7
"2019-07-12 22:35:00+00",15.0,16.0,,84.3,-653,192,37,1007.89,85,105
"2019-07-12 22:40:00+00",14.3,15.3,,84.1,-622,168,35,1008.01,84.6,6.6
"2019-07-12 22:45:00+00",13.8,14.8,,83.9,-589,206,45,1008.06,84.1,50
"2019-07-12 22:50:00+00",14.1,16.1,,84.1,-612,169,39,1008.18,83.7,3.9
"2019-07-12 22:55:00+00",16.5,17.5,,84.7,-732,175,51,1008.21,83.6,44.3
"2019-07-12 23:00:00+00",14.4,15.4,,84.2,-637,118,39,1008.32,83.6,41.6
"2019-07-12 23:05:00+00",14.7,16.7,,84.1,-632,160,37,1008.45,83.6,37.4
"2019-07-12 23:10:00+00",13.5,16.5,,83.9,-582,169,35,1008.51,83.6,49.9
"2019-07-12 23:15:00+00",13.1,15.1,,84,-567,182,39,1008.51,83.8,44.2
"2019-07-12 23:20:00+00",12.3,14.3,,83.7,-518,208,34,1008.54,83.8,5.3
"2019-07-12 23:25:00+00",10.1,12.1,,82.6,-428,169,29,1008.6,83.3,0.8
"2019-07-12 23:30:00+00",12.5,13.5,,82.9,-539,177,36,1008.68,82.8,0
"2019-07-12 23:35:00+00",12.0,13.0,,83,-506,207,33,1008.64,82.4,1.7
"2019-07-12 23:40:00+00",6.7,8.7,,82.4,-255,163,45,1008.75,82.3,4.6
"2019-07-12 23:45:00+00",8.8,9.8,,81.8,-363,154,20,1008.81,81.8,3.5
"2019-07-12 23:50:00+00",8.8,9.8,,81.6,-358,168,15,1008.78,81.5,0.5
"2019-07-12 23:55:00+00",8.8,9.8,,81.4,-359,183,20,1008.93,81.3,0
